Cloud_Cover
100 100 100 100 100 49 5 5 4 15 5 0 0 0 0 0 0 0 0 0 0 0 0 0 0 0 0 0 0 0 0 0 0 0 0 0 0 0 0 0 0 0 0 0 0
100 96 75 99 61 13 5 5 5 30 5 3 16 5 5 0 0 0 0 0 0 0 0 0 0 0 0 0 0 0 0 0 0 0 0 0 0 0 0 0 0 0 0 0 0
100 100 69 30 49 20 8 5 5 5 12 6 100 24 54 9 0 0 0 0 0 0 0 0 0 0 0 0 0 0 0 0 0 0 0 0 0 0 0 0 0 0 0 0 0
98 100 100 100 11 69 47 52 5 5 17 5 20 20 4 5 3 4 0 0 0 0 0 0 0 0 0 0 0 0 0 0 0 0 0 0 0 0 0 0 0 0 0 0 0
0 50 100 100 100 83 30 48 65 23 5 5 5 5 8 100 97 0 0 0 0 0 0 0 0 0 0 0 0 0 0 0 0 0 0 0 0 0 0 0 0 0 0 0 0
0 0 0 32 31 73 5 100 100 100 5 5 42 77 47 100 97 5 5 5 0 0 0 0 0 0 0 0 0 0 0 0 0 0 0 0 0 0 0 0 0 0 0 0 0
0 0 0 0 5 33 100 100 100 76 8 5 6 73 63 15 58 7 5 0 2 0 0 0 0 0 0 0 0 0 0 0 0 0 0 0 0 0 0 0 0 0 0 0 0
0 0 0 0 0 15 98 18 31 5 4 5 15 7 0 0 0 0 0 0 0 0 0 0 0 0 0 0 0 0 0 0 0 0 0 0 0 0 0 0 0 0 4 0 0
0 0 0 0 0 60 68 40 1 0 0 0 0 0 0 0 0 0 0 0 0 0 0 0 0 0 0 0 0 0 0 2 0 0 0 0 0 2 5 3 0 1 2 0 0
0 0 0 0 0 22 2 0 0 0 0 0 0 0 0 0 0 0 0 0 0 0 0 0 0 0 3 1 0 0 2 5 4 3 4 2 0 0 0 0 0 0 0 1 0
0 0 0 0 0 0 0 0 0 0 0 0 0 0 0 0 0 0 0 0 0 0 0 0 0 0 0 0 0 0 2 0 4 0 3 5 5 5 2 0 0 0 0 0 5
64 0 0 0 0 0 4 0 0 0 0 0 0 0 0 0 0 0 0 0 0 0 0 0 0 0 0 0 0 0 0 0 0 0 0 0 4 2 4 0 0 0 0 0 0
72 0 0 0 0 0 0 0 0 0 0 0 0 0 0 0 0 0 0 0 0 0 0 0 0 0 0 0 0 0 0 0 0 0 0 0 0 5 5 3 0 5 5 5 5
62 0 0 0 0 0 0 0 0 0 0 0 0 0 0 0 0 0 0 0 0 0 0 0 0 0 0 0 0 0 0 0 0 0 0 0 0 0 2 5 3 5 5 44 18
0 0 0 0 16 0 0 0 0 0 0 0 0 0 0 0 0 0 0 0 0 0 2 0 0 0 0 0 0 0 0 0 0 0 0 0 0 0 0 10 30 5 5 62 100
0 0 0 0 0 0 0 0 0 0 0 0 0 0 0 1 0 0 0 0 0 0 0 0 0 0 0 0 5 5 5 5 4 0 0 0 0 0 0 0 58 74 30 21 6
4 0 0 0 0 0 0 0 0 0 0 4 5 5 5 5 4 5 3 0 0 0 0 0 0 1 0 48 41 91 94 24 5 4 2 2 5 3 2 17 4 6 87 85 71
4 2 0 0 0 4 4 0 0 0 3 5 5 5 5 5 5 5 5 20 62 13 4 0 0 3 5 21 98 100 100 100 29 39 5 20 97 100 5 43 74 100 100 100 100
5 5 0 0 2 5 5 5 5 0 1 0 5 5 5 5 5 5 2 0 0 4 4 10 54 6 5 87 90 100 100 100 100 100 44 93 97 93 42 5 5 51 100 100 100
82 5 6 6 4 5 5 7 5 7 3 5 5 5 5 3 2 2 0 0 1 0 0 82 98 100 100 97 100 100 100 100 100 75 5 30 26 50 68 13 5 32 99 100 100
85 46 4 10 34 48 11 4 26 87 31 27 8 20 5 5 5 5 5 5 3 0 0 2 20 59 68 59 86 100 97 13 93 81 5 5 8 5 0 5 8 34 76 100 100
10 41 5 5 68 100 35 1 3 17 35 15 76 100 11 99 16 4 1 0 3 0 0 0 3 86 97 100 94 78 2 0 0 5 2 0 4 5 0 0 5 5 12 99 100
4 10 5 5 82 100 36 5 63 82 6 7 5 5 55 12 14 63 11 5 8 5 1 1 1 2 14 2 0 0 0 0 0 0 0 0 1 5 1 5 5 5 15 85 100
49 0 26 69 100 100 28 2 73 5 5 63 86 85 7 5 45 62 100 100 100 100 100 85 79 81 3 0 0 0 0 0 0 0 0 0 0 10 4 5 5 5 5 96 69
60 30 0 72 100 100 68 7 96 46 5 6 19 77 5 1 5 5 2 70 100 100 100 98 39 5 5 0 0 0 0 0 0 0 0 0 0 0 3 5 4 5 5 91 79
97 59 10 6 93 86 14 5 27 82 27 98 49 48 2 5 5 5 42 20 5 5 80 5 5 7 5 2 0 0 0 0 0 0 0 0 0 0 5 5 5 8 7 5 5
100 100 100 82 100 81 94 89 100 100 99 15 100 5 5 75 0 40 33 4 5 0 1 2 1 0 5 0 0 54 0 0 0 0 4 0 0 0 4 5 4 10 5 66 75